Point Salines, Grenada

4:27 AM AST on August 28, 2016 (GMT -0400)
Point Salines

Weather History for 78958 - February, 2013

Change the Weather History Date:

Wednesday, February 20, 2013

  Actual Average Record
Temperature  
Mean Temperature 82 °F -  
Max Temperature 89 °F 83 °F - ()
Min Temperature 75 °F 74 °F - ()
Cooling Degree Days 17    
Growing Degree Days 32 (Base 50)    
Moisture  
Dew Point 75 °F    
Average Humidity 84    
Maximum Humidity 100    
Minimum Humidity 70    
Precipitation  
Precipitation 0.04 in - - ()
Sea Level Pressure  
Sea Level Pressure 29.94 in    
Wind  
Wind Speed 13 mph ()    
Max Wind Speed 21 mph    
Max Gust Speed -    
Visibility 7.1 miles    
Events Rain    
T = Trace of Precipitation, MM = Missing Value Source: Averaged Metar Reports

Daily Weather History Graph

Daily Weather History Graph

Search for Another Location

Airport or City:

Trip Planner

Search our weather history database for the weather conditions in past years. The results will help you decide how hot, cold, wet, or windy it might be!

Date:

Astronomy

Feb. 20, 2013 Rise Set
Actual Time 6:26 AM AST 6:15 PM AST
Civil Twilight 6:05 AM AST 6:36 PM AST
Nautical Twilight 5:40 AM AST 7:01 PM AST
Astronomical Twilight 5:15 AM AST 7:26 PM AST
Moon 2:01 PM AST (2/20) 2:13 AM AST (2/20)
Length of Visible Light 12h 31m
Length of Day
11h 48m
Waxing Gibbous, 75% of the Moon is Illuminated
Feb 20
Waxing Gibbous
Feb 25
Full
Mar 4
Last Quarter
Mar 11
New
Mar 19
First Quarter

Hourly Weather History & Observations

Time (AST) Temp. Heat Index Dew Point Humidity Pressure Visibility Wind Dir Wind Speed Gust Speed Precip Events Conditions
12:00 AM 78.8 °F - 73.4 °F 83% 29.95 in 6.2 mi East 10.4 mph - N/A   Scattered Clouds
1:00 AM 78.8 °F - 75.2 °F 89% 29.95 in 6.2 mi East 11.5 mph - N/A Rain Light Rain Showers
2:00 AM 78 °F - 74 °F 84% 29.93 in 9 mi East 12.7 mph - -   Widespread Dust
2:00 AM 78.8 °F - 73.4 °F 83% 29.95 in 6.2 mi East 12.7 mph - N/A   Partly Cloudy
3:00 AM 78.8 °F - 73.4 °F 83% 29.92 in 6.2 mi East 13.8 mph - N/A   Partly Cloudy
4:00 AM 77.0 °F - 73.4 °F 89% 29.92 in 6.2 mi East 11.5 mph - N/A   Partly Cloudy
5:00 AM 78 °F - 73 °F 82% 29.94 in 11 mi East 16.1 mph - -   Widespread Dust
5:00 AM 77.0 °F - 73.4 °F 89% 29.92 in 6.2 mi East 16.1 mph - N/A   Partly Cloudy
6:00 AM 77.0 °F - 73.4 °F 89% 29.95 in 6.2 mi East 15.0 mph - N/A   Partly Cloudy
7:00 AM 77.0 °F - 73.4 °F 89% 29.95 in 6.2 mi East 10.4 mph - N/A   Partly Cloudy
8:00 AM 81 °F - 75 °F 78% 29.98 in 10 mi East 13.8 mph - - Rain Light Rain Showers
8:00 AM 80.6 °F 86.2 °F 75.2 °F 84% 29.98 in 6.2 mi East 13.8 mph - N/A   Scattered Clouds
9:00 AM 82.4 °F 90.9 °F 77.0 °F 84% 29.98 in 6.2 mi East 18.4 mph - N/A   Scattered Clouds
10:00 AM 80.6 °F 87.1 °F 77.0 °F 89% 30.01 in 6.2 mi East 17.3 mph - N/A   Scattered Clouds
11:00 AM 83 °F - 76 °F 75% 30.00 in 9 mi East 18.4 mph - - Rain Light Rain
11:00 AM 82.4 °F 90.9 °F 77.0 °F 84% 29.98 in 6.2 mi East 18.4 mph - N/A   Mostly Cloudy
12:00 PM 84.2 °F 94.1 °F 77.0 °F 79% 29.98 in 6.2 mi East 20.7 mph - N/A   Scattered Clouds
1:00 PM 84.2 °F 94.1 °F 77.0 °F 79% 29.95 in 6.2 mi ESE 18.4 mph - N/A   Partly Cloudy
2:00 PM 84 °F - 78 °F 76% 29.91 in 12 mi East 19.6 mph - -   Widespread Dust
2:00 PM 84.2 °F 94.1 °F 77.0 °F 79% 29.92 in 6.2 mi East 19.6 mph - N/A   Scattered Clouds
3:00 PM 84.2 °F 92.3 °F 75.2 °F 74% 29.89 in 6.2 mi ESE 19.6 mph - N/A   Partly Cloudy
4:00 PM 82.4 °F 89.5 °F 75.2 °F 79% 29.89 in 6.2 mi ESE 19.6 mph - N/A   Scattered Clouds
5:00 PM 82 °F - 75 °F 74% 29.89 in 12 mi ESE 18.4 mph - -   Widespread Dust
5:00 PM 82.4 °F 87.2 °F 71.6 °F 70% 29.89 in 6.2 mi ESE 18.4 mph - N/A   Scattered Clouds
6:00 PM 80.6 °F 86.2 °F 75.2 °F 84% 29.89 in 6.2 mi ESE 16.1 mph - N/A   Scattered Clouds
7:00 PM 78.8 °F - 73.4 °F 83% 29.89 in 6.2 mi East 11.5 mph - N/A   Scattered Clouds
8:00 PM 76 °F - 74 °F 93% 29.92 in 7 mi East 11.5 mph - -   Partly Cloudy
8:00 PM 75.2 °F - 75.2 °F 100% 29.92 in 6.2 mi East 11.5 mph - N/A   Scattered Clouds
9:00 PM 77.0 °F - 73.4 °F 89% 29.92 in 6.2 mi East 12.7 mph - N/A   Scattered Clouds
10:00 PM 77.0 °F - 73.4 °F 89% 29.95 in 6.2 mi East 17.3 mph - N/A   Mostly Cloudy
11:00 PM 77 °F - 74 °F 90% 29.94 in 7 mi East 16.1 mph - -   Widespread Dust
11:00 PM 77.0 °F - 75.2 °F 94% 29.92 in 6.2 mi East 16.1 mph - N/A   Scattered Clouds